TimeEDT,TemperatureF,Dew PointF,Humidity,Sea Level PressureIn,VisibilityMPH,Wind Direction,Wind SpeedMPH,Gust SpeedMPH,PrecipitationIn,Events,Conditions,WindDirDegrees,DateUTC
12:15 AM,60.8,57.2,88,30.04,10.0,Calm,Calm,-,N/A,,Overcast,0,2012-10-03 04:15:00
12:35 AM,60.8,57.2,88,30.04,10.0,SW,3.5,-,N/A,,Overcast,230,2012-10-03 04:35:00
12:55 AM,60.8,57.2,88,30.04,10.0,Calm,Calm,-,N/A,,Overcast,0,2012-10-03 04:55:00
1:15 AM,60.8,57.2,88,30.05,10.0,Calm,Calm,-,N/A,,Overcast,0,2012-10-03 05:15:00
1:35 AM,60.8,57.2,88,30.05,10.0,Calm,Calm,-,N/A,,Overcast,0,2012-10-03 05:35:00
1:55 AM,60.8,57.2,88,30.05,10.0,Calm,Calm,-,N/A,,Overcast,0,2012-10-03 05:55:00
2:15 AM,60.8,57.2,88,30.05,10.0,Calm,Calm,-,N/A,,Overcast,0,2012-10-03 06:15:00
2:35 AM,60.8,57.2,88,30.05,9.0,Calm,Calm,-,N/A,,Overcast,0,2012-10-03 06:35:00
2:55 AM,60.8,57.2,88,30.04,10.0,Calm,Calm,-,N/A,,Overcast,0,2012-10-03 06:55:00
3:15 AM,60.8,57.2,88,30.05,10.0,Calm,Calm,-,N/A,,Overcast,0,2012-10-03 07:15:00
3:35 AM,60.8,57.2,88,30.05,10.0,Calm,Calm,-,N/A,,Overcast,0,2012-10-03 07:35:00
3:55 AM,60.8,57.2,88,30.06,10.0,Calm,Calm,-,N/A,,Overcast,0,2012-10-03 07:55:00
4:15 AM,60.8,57.2,88,30.05,10.0,North,4.6,-,N/A,,Overcast,10,2012-10-03 08:15:00
4:35 AM,60.8,57.2,88,30.05,10.0,Calm,Calm,-,N/A,,Overcast,0,2012-10-03 08:35:00
4:55 AM,60.8,57.2,88,30.06,5.0,Calm,Calm,-,N/A,,Overcast,0,2012-10-03 08:55:00
5:15 AM,60.8,57.2,88,30.06,7.0,Calm,Calm,-,N/A,,Overcast,0,2012-10-03 09:15:00
5:35 AM,60.8,57.2,88,30.06,3.0,Calm,Calm,-,N/A,,Overcast,0,2012-10-03 09:35:00
5:55 AM,60.8,57.2,88,30.07,2.5,Calm,Calm,-,N/A,,Overcast,0,2012-10-03 09:55:00
6:15 AM,60.8,57.2,88,30.08,3.0,North,4.6,-,N/A,,Overcast,360,2012-10-03 10:15:00
6:55 AM,60.8,57.2,88,30.09,5.0,Calm,Calm,-,N/A,,Overcast,0,2012-10-03 10:55:00
7:15 AM,59.0,57.2,94,30.09,1.5,NNE,5.8,-,N/A,,Overcast,20,2012-10-03 11:15:00
7:35 AM,59.0,57.2,94,30.09,2.0,NE,6.9,-,N/A,,Overcast,40,2012-10-03 11:35:00
7:55 AM,59.0,57.2,94,30.10,2.0,NE,5.8,-,N/A,,Overcast,50,2012-10-03 11:55:00
8:15 AM,59.0,57.2,94,30.11,1.5,NE,4.6,-,N/A,,Overcast,40,2012-10-03 12:15:00
8:35 AM,59.0,57.2,94,30.12,2.5,North,6.9,-,N/A,,Overcast,360,2012-10-03 12:35:00
8:55 AM,60.8,57.2,88,30.12,1.5,NNE,4.6,-,0.01,,Overcast,30,2012-10-03 12:55:00
9:15 AM,60.8,57.2,88,30.12,1.8,NE,4.6,-,N/A,,Overcast,40,2012-10-03 13:15:00
9:35 AM,60.8,57.2,88,30.12,2.0,NE,5.8,-,N/A,,Overcast,40,2012-10-03 13:35:00
9:55 AM,60.8,59.0,94,30.12,2.5,NE,4.6,-,N/A,,Overcast,40,2012-10-03 13:55:00
10:15 AM,60.8,59.0,94,30.12,2.5,NNE,6.9,-,N/A,,Overcast,30,2012-10-03 14:15:00
10:35 AM,60.8,57.2,88,30.12,4.0,NE,5.8,-,N/A,,Overcast,40,2012-10-03 14:35:00
10:55 AM,60.8,59.0,94,30.11,7.0,NNE,9.2,-,N/A,,Overcast,30,2012-10-03 14:55:00
11:15 AM,60.8,59.0,94,30.12,5.0,NE,5.8,-,N/A,,Overcast,40,2012-10-03 15:15:00
11:35 AM,60.8,59.0,94,30.12,4.0,NNE,5.8,-,N/A,,Overcast,30,2012-10-03 15:35:00
12:15 PM,60.8,59.0,94,30.13,2.0,NNW,4.6,-,N/A,,Overcast,330,2012-10-03 16:15:00
12:35 PM,62.6,60.8,94,30.12,2.5,NNE,6.9,-,N/A,,Overcast,20,2012-10-03 16:35:00
12:55 PM,62.6,59.0,88,30.11,2.5,NNE,6.9,-,N/A,,Overcast,20,2012-10-03 16:55:00
1:15 PM,62.6,59.0,88,30.12,2.5,NNE,5.8,-,N/A,,Overcast,30,2012-10-03 17:15:00
1:55 PM,62.6,59.0,88,30.11,2.5,NE,8.1,-,0.01,,Overcast,50,2012-10-03 17:55:00
2:15 PM,60.8,59.0,94,30.11,4.0,NE,10.4,-,N/A,,Overcast,50,2012-10-03 18:15:00
2:35 PM,60.8,57.2,88,30.11,8.0,ENE,8.1,-,N/A,,Overcast,70,2012-10-03 18:35:00
2:55 PM,60.8,57.2,88,30.12,5.0,ENE,6.9,-,N/A,,Overcast,60,2012-10-03 18:55:00
3:15 PM,60.8,59.0,94,30.11,4.0,ENE,8.1,-,N/A,,Overcast,60,2012-10-03 19:15:00
3:35 PM,60.8,59.0,94,30.12,4.0,East,3.5,-,N/A,,Overcast,90,2012-10-03 19:35:00
3:55 PM,60.8,57.2,88,30.11,3.0,ENE,8.1,-,N/A,,Overcast,70,2012-10-03 19:55:00
4:15 PM,60.8,57.2,88,30.12,3.0,NE,6.9,-,N/A,,Overcast,40,2012-10-03 20:15:00
4:35 PM,60.8,57.2,88,30.12,5.0,ENE,5.8,-,N/A,,Overcast,60,2012-10-03 20:35:00
4:55 PM,60.8,57.2,88,30.13,3.0,ENE,3.5,-,N/A,,Overcast,60,2012-10-03 20:55:00
5:15 PM,60.8,57.2,88,30.13,3.0,ENE,4.6,-,N/A,,Overcast,70,2012-10-03 21:15:00
5:35 PM,59.0,57.2,94,30.14,2.5,ENE,5.8,-,N/A,,Overcast,60,2012-10-03 21:35:00
5:55 PM,59.0,57.2,94,30.14,3.0,ENE,4.6,-,N/A,,Overcast,60,2012-10-03 21:55:00
6:15 PM,59.0,57.2,94,30.14,5.0,ENE,4.6,-,N/A,,Overcast,60,2012-10-03 22:15:00
6:55 PM,59.0,57.2,94,30.14,5.0,East,4.6,-,N/A,,Overcast,80,2012-10-03 22:55:00
7:15 PM,59.0,57.2,94,30.14,4.0,ENE,4.6,-,N/A,,Overcast,70,2012-10-03 23:15:00
7:35 PM,57.2,57.2,100,-9999,3.0,East,5.8,-,N/A,,Overcast,80,2012-10-03 23:35:00
7:55 PM,57.2,55.4,94,30.15,8.0,ENE,5.8,-,N/A,,Overcast,70,2012-10-03 23:55:00
8:15 PM,57.2,55.4,94,30.15,3.0,ENE,5.8,-,N/A,,Overcast,60,2012-10-04 00:15:00
8:35 PM,57.2,55.4,94,30.15,5.0,East,4.6,-,N/A,,Overcast,80,2012-10-04 00:35:00
9:15 PM,57.2,55.4,94,30.16,3.0,NE,5.8,-,N/A,,Overcast,40,2012-10-04 01:15:00
9:35 PM,57.2,55.4,94,30.17,3.0,NE,3.5,-,N/A,,Overcast,40,2012-10-04 01:35:00
9:55 PM,57.2,55.4,94,30.17,4.0,NNE,6.9,-,N/A,,Overcast,30,2012-10-04 01:55:00
10:15 PM,57.2,55.4,94,30.17,3.0,ENE,3.5,-,N/A,,Overcast,70,2012-10-04 02:15:00
10:35 PM,57.2,55.4,94,30.16,1.5,NE,6.9,-,N/A,,Overcast,50,2012-10-04 02:35:00
10:55 PM,57.2,55.4,94,30.17,0.8,Calm,Calm,-,N/A,,Overcast,0,2012-10-04 02:55:00
11:15 PM,57.2,55.4,94,30.17,1.0,NE,5.8,-,N/A,,Overcast,40,2012-10-04 03:15:00
11:35 PM,57.2,55.4,94,30.17,1.2,NE,4.6,-,N/A,,Overcast,40,2012-10-04 03:35:00
11:55 PM,57.2,55.4,94,30.17,1.0,Calm,Calm,-,N/A,,Overcast,0,2012-10-04 03:55:00